CAPE
0 0 0 0 0 0 0 0 0 0 0 0 0 0 0 0 0 0 0 27 12 30 555 1318 1801 1666 1726 2125 3642 3343 3753 3921 3961 2928 2498 2375 2033 2319 2264 2488 1405 1305 1003 697
0 0 0 0 0 0 0 0 0 0 0 0 0 0 0 0 0 0 0 0 27 63 183 1452 2332 2647 2989 3042 3424 4389 4795 5260 4332 3749 3455 3141 2586 2309 2425 1533 1329 1163 1082 868
0 0 0 0 0 0 0 0 0 0 0 0 0 0 0 0 0 0 0 6 2 49 151 1952 2632 3108 3410 3842 4451 4641 5174 5620 4536 5053 4938 4063 4049 3129 2209 1332 1100 890 661 386
0 0 0 0 0 0 0 0 0 0 0 0 0 0 0 0 0 0 0 0 32 159 702 2142 2742 3294 3392 3216 3526 3897 4130 4546 5035 4668 4003 3488 2693 2253 2158 1263 1143 753 381 475
0 0 0 0 0 0 0 0 0 0 0 0 0 0 0 0 22 4 0 43 59 121 882 2310 2329 2791 2870 3183 3314 3988 4196 4077 4385 3866 4183 3026 3164 2524 2215 1238 836 605 468 360
0 0 0 0 0 0 0 0 0 0 0 0 0 0 0 0 35 66 99 295 465 413 424 1097 2481 2451 2575 2520 2985 3272 3739 3763 3698 3526 3672 3121 2965 2776 1829 984 794 558 266 0
0 0 0 0 0 0 0 0 0 0 0 0 0 0 0 18 11 1 9 5 255 460 501 997 1987 2030 2397 2357 2501 2918 2969 2898 2737 2841 2990 2929 3340 2792 1997 1213 889 465 39 0
0 0 0 0 0 0 0 0 0 0 1 2 12 13 2 0 3 0 0 0 0 0 36 580 2008 2343 2043 1921 2476 2623 2428 2511 2475 2075 2302 2417 2209 1716 1430 1250 698 85 10 0
0 0 0 0 0 0 0 0 0 17 0 0 1 27 27 42 0 0 0 0 2 90 149 293 2358 2304 1734 2159 2671 2502 1816 1944 2145 1939 1594 1693 1583 1609 1022 271 74 0 0 0
0 0 0 0 0 0 0 0 0 1 0 0 0 3 340 154 63 5 9 10 55 112 782 1008 2293 2301 1987 2367 2613 2331 1829 1578 1576 1443 1306 1168 955 548 60 4 0 0 0 0
0 0 0 0 0 0 0 0 0 0 5 2 26 170 85 200 134 202 70 0 8 131 1196 1347 1715 2206 2034 2432 2038 2381 1624 1469 1316 1109 939 615 435 70 3 0 0 0 0 0
0 0 0 0 0 1 0 0 17 6 72 146 210 52 207 327 23 32 0 1 4 20 790 1247 1860 2126 2117 2524 2096 2156 1965 1373 982 828 714 204 45 0 0 0 0 4 0 0
0 0 0 0 0 0 3 19 16 304 559 318 200 71 133 285 259 47 6 32 75 138 173 983 1949 2154 2225 2427 2035 1808 1562 1076 761 709 557 145 54 0 1 7 11 0 0 0
0 0 0 1 13 0 7 104 148 307 487 299 200 235 204 477 65 53 418 406 154 224 324 1411 2300 2697 2429 2488 2062 1725 1256 967 629 632 293 73 10 0 3 6 0 1 3 3
0 0 0 0 0 0 0 0 3 41 89 180 189 86 269 454 416 266 333 454 494 1054 585 1676 2538 2824 2562 2738 2060 1543 1248 893 627 415 195 34 1 45 23 0 5 6 4 4
0 0 0 0 0 0 0 0 0 0 0 0 0 0 2 145 252 153 186 1123 1455 1828 1893 1912 2712 2667 2638 2620 1850 1430 1135 727 575 441 172 42 58 23 7 11 14 9 14 5
0 0 0 0 0 0 0 0 0 0 0 0 0 14 76 152 383 303 1245 1238 1523 1773 2068 2233 3067 3037 3027 2724 1890 1413 898 643 615 505 206 109 63 12 1 11 18 9 1 13
0 0 0 0 0 0 0 0 0 0 0 0 1 9 30 526 1371 1143 734 838 1323 1709 2080 2293 2457 3513 3219 2665 1774 1535 1146 628 650 438 201 70 19 22 4 10 1 0 20 32
0 0 0 0 0 0 0 0 0 0 0 0 7 27 143 341 598 714 382 519 1118 1671 2035 2432 2622 3734 3307 2217 1921 1569 1018 627 772 471 149 26 31 4 0 4 0 7 26 37
0 4 0 0 0 0 0 0 0 9 3 172 136 199 436 385 527 279 181 193 611 1339 1836 2208 2459 3379 2459 2087 1802 1408 829 776 671 231 131 30 30 0 0 0 4 8 15 14
0 0 0 0 0 0 0 0 0 5 214 77 3 30 35 9 8 58 17 2 170 1124 1590 1864 2682 2432 2295 1754 1532 1306 1414 793 489 282 50 65 0 0 0 0 1 14 5 9
0 0 0 0 0 0 38 1 86 402 182 49 1 0 0 0 0 0 0 0 0 305 1205 2019 1991 1883 1844 1489 1217 1150 1103 567 257 118 94 5 0 0 0 0 0 0 5 10
0 0 0 49 12 32 15 343 320 197 56 0 0 0 0 0 0 0 0 0 0 137 1261 1714 1672 1607 1356 1206 1127 828 666 408 206 115 108 0 0 0 0 0 3 3 35 64
30 49 82 61 11 6 69 98 1 11 11 12 0 0 0 0 0 0 0 0 0 0 1554 1581 1453 1122 909 763 898 631 427 271 160 163 0 0 0 0 0 1 0 18 16 6
0 0 0 0 0 0 0 2 0 2 0 0 0 0 0 0 0 0 0 0 0 0 1368 1444 1247 872 856 582 566 535 304 230 189 14 0 0 0 0 1 18 13 19 40 2
0 0 0 0 1 0 0 0 0 0 0 0 0 0 0 0 0 0 0 0 0 17 1263 1201 881 513 407 565 649 488 285 246 87 0 0 0 0 0 0 1 5 0 0 0
CIN
-0 -0 -0 -0 -0 -0 -0 -0 -0 -0 -0 -0 -0 -0 -0 -0 -0 -0 -0 -1 -4 -7 -22 -35 -60 -90 -111 -102 -41 -77 -41 -56 -25 -76 -99 -67 -67 -27 -25 -18 -116 -128 -115 -136
-0 -0 -0 -0 -0 -0 -0 -0 -0 -0 -0 -0 -0 -0 -0 -0 -0 -0 -0 -0 -3 -4 -18 -50 -69 -93 -80 -72 -60 -38 -20 -26 -34 -21 -26 -29 -28 -33 -18 -137 -130 -111 -79 -70
-0 -0 -0 -0 -0 -0 -0 -0 -0 -0 -0 -0 -0 -0 -0 -0 -0 -0 -0 -3 -4 -8 -15 -66 -68 -87 -61 -37 -28 -24 -19 -9 -23 -7 -8 -11 -10 -30 -41 -178 -164 -143 -143 -145
-0 -0 -0 -0 -0 -0 -0 -0 -0 -0 -0 -0 -0 -0 -0 -0 -0 -0 -0 -0 -4 -6 -12 -43 -70 -108 -101 -81 -40 -21 -19 -11 -3 -14 -9 -11 -25 -32 -27 -155 -145 -188 -181 -104
-0 -0 -0 -0 -0 -0 -0 -0 -0 -0 -0 -0 -0 -0 -0 -0 -1 -18 -0 -2 -0 -12 -4 -48 -64 -91 -116 -83 -47 -7 -11 -10 -3 -6 -6 -21 -4 -8 -29 -151 -185 -193 -179 -154
-0 -0 -0 -0 -0 -0 -0 -0 -0 -0 -0 -0 -0 -0 -0 -0 -1 -0 -1 -7 -6 -16 -10 -6 -24 -75 -108 -104 -55 -58 -26 -20 -6 -7 -1 -8 -6 -14 -59 -137 -136 -134 -207 -0
-0 -0 -0 -0 -0 -0 -0 -0 -0 -0 -0 -0 -0 -0 -0 -3 -3 -4 -34 -0 -2 -5 -15 -14 -32 -62 -80 -80 -80 -87 -93 -77 -78 -37 -8 -7 -4 -6 -43 -104 -108 -178 -204 -0
-0 -0 -0 -0 -0 -0 -0 -0 -0 -0 -0 -0 -17 -7 -4 -0 -11 -7 -0 -0 -0 -0 -6 -8 -36 -81 -107 -115 -45 -71 -147 -102 -80 -107 -50 -27 -33 -52 -76 -52 -139 -275 -151 -0
-0 -0 -0 -0 -0 -0 -0 -0 -0 -0 -0 -0 -4 -24 -17 -20 -0 -0 -0 -0 -0 -4 -5 -16 -45 -88 -110 -56 -33 -77 -209 -136 -86 -89 -129 -96 -94 -63 -145 -317 -371 -0 -0 -0
-0 -0 -0 -0 -0 -0 -0 -0 -0 -0 -0 -0 -0 -13 -18 -89 -42 -4 -2 -12 -2 -2 -14 -18 -57 -116 -105 -37 -39 -52 -133 -183 -137 -155 -176 -175 -197 -244 -418 -385 -0 -0 -167 -0
-0 -0 -0 -0 -0 -0 -0 -0 -0 -0 -18 -2 -14 -6 -60 -7 -49 -7 -0 -0 -13 -4 -18 -30 -49 -123 -105 -42 -82 -29 -127 -169 -162 -187 -213 -178 -278 -465 -103 -0 -0 -0 -0 -0
-0 -0 -0 -0 -0 -0 -0 -0 -14 -2 -7 -4 -2 -22 -14 -0 -11 -9 -0 -2 -21 -11 -13 -17 -50 -105 -121 -43 -80 -61 -74 -156 -219 -237 -130 -171 -484 -0 -0 -0 -0 -119 -0 -0
-0 -0 -0 -0 -0 -0 -0 -19 -3 -1 -4 -4 -5 -16 -16 -17 -4 -9 -20 -18 -13 -8 -6 -9 -25 -93 -97 -52 -65 -108 -133 -199 -263 -140 -175 -427 -472 -108 -40 -464 -100 -0 -0 -0
-0 -0 -0 -62 -28 -0 -13 -6 -1 -1 -0 -0 -0 -1 -0 -18 -192 -55 -1 -12 -26 -9 -10 -6 -20 -76 -90 -30 -78 -123 -202 -213 -167 -191 -199 -450 -474 -0 -77 -207 -0 -0 -1 -1
-0 -0 -0 -0 -0 -0 -0 -0 -2 -4 -3 -0 -1 -11 -3 -4 -4 -5 -9 -24 -8 -7 -5 -14 -42 -86 -109 -29 -89 -153 -183 -215 -178 -198 -29 -436 -119 -358 -349 -0 -2 -2 -1 -1
-0 -0 -0 -0 -0 -0 -0 -0 -0 -0 -0 -0 -0 -30 -13 -7 -3 -7 -0 -18 -28 -30 -41 -54 -44 -82 -87 -65 -123 -131 -184 -177 -64 -49 -48 -396 -347 -332 -104 -2 -3 -1 -1 -1
-0 -0 -0 -0 -0 -0 -0 -0 -0 -0 -0 -0 -0 -12 -1 -1 -3 -3 -30 -47 -66 -69 -67 -63 -25 -62 -54 -76 -117 -148 -230 -196 -93 -58 -91 -305 -290 -132 -76 -2 -2 -0 -0 -1
-0 -0 -0 -0 -0 -0 -0 -0 -0 -0 -0 -0 -0 -3 -3 -18 -57 -85 -78 -75 -84 -99 -90 -84 -32 -32 -34 -77 -87 -111 -175 -241 -95 -82 -96 -301 -160 -117 -0 -1 -0 -0 -2 -0
-0 -0 -0 -0 -0 -0 -0 -0 -0 -0 -0 -0 -8 -20 -19 -27 -41 -112 -130 -100 -61 -82 -83 -69 -50 -22 -26 -80 -97 -103 -166 -200 -89 -88 -76 -220 -127 -88 -0 -0 -0 -1 -1 -1
-0 -2 -0 -0 -0 -0 -0 -1 -0 -7 -2 -61 -36 -18 -37 -61 -30 -31 -50 -163 -108 -39 -34 -44 -40 -19 -21 -64 -97 -118 -159 -125 -93 -82 -190 -145 -73 -0 -0 -0 -1 -2 -1 -4
-0 -0 -0 -0 -0 -0 -0 -0 -0 -6 -16 -85 -27 -72 -92 -71 -98 -224 -249 -169 -167 -12 -14 -21 -9 -11 -15 -61 -89 -91 -61 -108 -92 -130 -120 -66 -0 -0 -0 -0 -0 -1 -1 -2
-0 -0 -0 -0 -0 -0 -1 -0 -1 -21 -48 -89 -17 -0 -1 -0 -0 -0 -0 -0 -0 -53 -2 -23 -45 -30 -21 -41 -78 -65 -79 -105 -117 -111 -79 -30 -0 -0 -0 -0 -0 -0 -14 -36
-0 -0 -0 -0 -2 -12 -15 -7 -2 -6 -20 -0 -0 -0 -0 -0 -0 -0 -0 -0 -0 -51 -1 -16 -33 -30 -37 -46 -50 -101 -120 -95 -119 -77 -42 -0 -0 -0 -0 -0 -7 -17 -22 -11
-0 -5 -0 -0 -2 -9 -1 -2 -2 -7 -2 -1 -0 -0 -0 -0 -0 -0 -0 -0 -0 -0 -25 -42 -29 -37 -60 -89 -70 -117 -82 -89 -69 -24 -0 -0 -0 -0 -0 -3 -3 -7 -7 -9
-0 -0 -0 -0 -1 -0 -0 -18 -0 -10 -0 -0 -0 -0 -0 -0 -0 -0 -0 -0 -0 -92 -6 -18 -29 -35 -52 -90 -88 -72 -71 -51 -18 -65 -0 -0 -0 -0 -5 -31 -39 -14 -23 -24
-0 -0 -0 -0 -1 -3 -0 -0 -0 -0 -0 -0 -0 -0 -0 -0 -0 -0 -0 -0 -0 -158 -7 -18 -34 -76 -95 -82 -50 -34 -34 -17 -30 -4 -0 -0 -0 -0 -0 -13 -5 -0 -0 -0
Wind_Speed
nan nan nan nan nan nan nan nan nan nan nan nan nan nan nan nan nan nan nan nan nan nan 30 42 41 31 30 27 26 26 28 26 27 28 32 29 31 32 33 38 44 45 41 43
nan nan nan nan nan nan nan nan nan nan nan nan nan nan nan nan nan nan nan nan nan nan 20 43 42 28 31 31 29 29 29 27 30 31 30 31 34 37 39 44 48 48 47 46
nan nan nan nan nan nan nan nan nan nan nan nan nan nan nan nan nan nan nan nan nan nan 26 44 30 25 29 30 28 28 28 31 32 34 30 32 36 39 42 45 47 50 50 53
nan nan nan nan nan nan nan nan nan nan nan nan nan nan nan nan nan nan nan nan nan 8 19 29 26 25 24 25 26 30 33 33 33 32 34 37 40 44 45 50 52 54 53 48
nan nan nan nan nan nan nan nan nan nan nan nan nan nan nan nan nan nan nan nan nan 28 29 31 22 23 23 23 26 29 31 28 30 35 34 41 41 43 48 50 59 56 53 50
nan nan nan nan nan nan nan nan nan nan nan nan nan nan nan nan nan nan nan 25 38 33 31 32 36 27 27 29 35 35 36 36 35 39 40 48 44 47 50 55 55 54 53 nan
nan nan nan nan nan nan nan nan nan nan nan nan nan nan nan nan nan nan nan nan 23 32 24 35 40 35 35 34 37 39 39 39 42 44 44 49 43 48 52 55 52 53 nan nan
nan nan nan nan nan nan nan nan nan nan nan nan nan nan nan nan nan nan nan nan nan nan nan 28 46 30 37 37 41 40 43 43 43 48 51 44 43 43 49 51 51 nan nan nan
nan nan nan nan nan nan nan nan nan nan nan nan nan nan nan nan nan nan nan nan nan nan 26 17 50 35 33 35 42 48 47 46 45 41 36 37 39 45 48 56 nan nan nan nan
nan nan nan nan nan nan nan nan nan nan nan nan nan nan 27 31 nan nan nan nan nan 12 38 32 37 30 28 34 37 41 39 38 34 34 35 38 42 50 nan nan nan nan nan nan
nan nan nan nan nan nan nan nan nan nan nan nan nan 11 nan 9 19 12 nan nan nan 9 43 38 33 34 26 32 35 33 36 34 35 33 35 41 45 nan nan nan nan nan nan nan
nan nan nan nan nan nan nan nan nan nan nan 10 6 nan 15 14 nan nan nan nan nan nan 26 45 34 33 29 31 31 31 34 34 33 35 40 43 nan nan nan nan nan nan nan nan
nan nan nan nan nan nan nan nan nan 17 23 20 19 nan 19 23 17 nan nan nan nan 30 20 41 48 31 28 31 31 32 32 34 37 40 41 39 nan nan nan nan nan nan nan nan
nan nan nan nan nan nan nan 23 17 13 12 7 12 11 2 28 nan nan 24 24 18 12 21 41 48 42 30 32 32 32 34 36 39 40 40 nan nan nan nan nan nan nan nan nan
nan nan nan nan nan nan nan nan nan nan nan 14 12 nan 21 28 28 26 25 20 16 24 13 29 47 43 36 32 31 30 31 32 37 40 41 nan nan nan nan nan nan nan nan nan
nan nan nan nan nan nan nan nan nan nan nan nan nan nan nan 18 17 12 11 33 40 33 28 29 48 35 35 39 34 32 32 32 35 36 35 nan nan nan nan nan nan nan nan nan
nan nan nan nan nan nan nan nan nan nan nan nan nan nan nan 12 17 15 46 47 36 25 30 27 41 40 38 40 40 37 39 39 40 38 36 37 nan nan nan nan nan nan nan nan
nan nan nan nan nan nan nan nan nan nan nan nan nan nan nan 37 46 51 53 45 36 27 28 27 29 41 33 44 43 45 43 41 40 37 39 nan nan nan nan nan nan nan nan nan
nan nan nan nan nan nan nan nan nan nan nan nan nan nan 45 50 41 55 49 47 41 32 28 25 26 43 41 42 47 49 45 43 37 39 40 nan nan nan nan nan nan nan nan nan
nan nan nan nan nan nan nan nan nan nan nan 58 56 55 51 43 30 52 47 46 39 30 30 28 24 42 42 42 42 44 43 43 40 40 41 nan nan nan nan nan nan nan nan nan
nan nan nan nan nan nan nan nan nan nan 43 nan nan nan nan nan nan nan nan nan 34 36 33 29 36 41 40 42 42 41 41 38 35 40 nan nan nan nan nan nan nan nan nan nan
nan nan nan nan nan nan nan nan nan 49 44 nan nan nan nan nan nan nan nan nan nan 35 37 45 42 43 40 41 41 39 36 37 40 42 nan nan nan nan nan nan nan nan nan nan
nan nan nan nan nan nan nan 33 38 38 nan nan nan nan nan nan nan nan nan nan nan 30 35 44 40 40 39 39 36 38 41 43 43 44 48 nan nan nan nan nan nan nan nan nan
nan nan nan nan nan nan nan nan nan nan nan nan nan nan nan nan nan nan nan nan nan nan 44 35 37 35 38 39 42 43 44 43 43 43 nan nan nan nan nan nan nan nan nan nan
nan nan nan nan nan nan nan nan nan nan nan nan nan nan nan nan nan nan nan nan nan nan 41 37 38 40 42 47 44 44 44 42 42 nan nan nan nan nan nan nan nan nan nan nan
nan nan nan nan nan nan nan nan nan nan nan nan nan nan nan nan nan nan nan nan nan nan 42 34 40 43 41 43 41 38 39 39 nan nan nan nan nan nan nan nan nan nan nan nan
Wind_Direction
nan nan nan nan nan nan nan nan nan nan nan nan nan nan nan nan nan nan nan nan nan nan 311 306 312 306 303 310 301 318 320 326 318 321 323 325 322 320 326 318 313 316 321 317
nan nan nan nan nan nan nan nan nan nan nan nan nan nan nan nan nan nan nan nan nan nan 269 298 293 308 295 298 304 308 310 312 317 322 321 324 320 319 321 314 316 316 318 319
nan nan nan nan nan nan nan nan nan nan nan nan nan nan nan nan nan nan nan nan nan nan 229 271 298 299 282 291 292 297 300 304 315 315 318 319 316 311 314 311 315 314 315 317
nan nan nan nan nan nan nan nan nan nan nan nan nan nan nan nan nan nan nan nan nan 262 280 287 292 278 274 287 285 287 294 295 304 308 312 316 318 315 310 312 313 313 313 319
nan nan nan nan nan nan nan nan nan nan nan nan nan nan nan nan nan nan nan nan nan 283 270 285 293 297 296 302 308 302 302 300 300 307 309 306 310 308 305 303 305 310 312 317
nan nan nan nan nan nan nan nan nan nan nan nan nan nan nan nan nan nan nan 247 263 274 280 286 290 296 295 298 294 294 294 294 297 300 298 301 308 301 299 302 307 310 314 nan
nan nan nan nan nan nan nan nan nan nan nan nan nan nan nan nan nan nan nan nan 295 299 290 289 285 281 284 291 291 288 288 290 292 294 298 301 296 294 297 301 307 310 nan nan
nan nan nan nan nan nan nan nan nan nan nan nan nan nan nan nan nan nan nan nan nan nan nan 301 299 294 284 288 291 289 281 278 283 287 290 290 288 292 295 302 302 nan nan nan
nan nan nan nan nan nan nan nan nan nan nan nan nan nan nan nan nan nan nan nan nan nan 288 266 281 295 289 286 283 284 283 282 284 290 291 291 295 296 296 297 nan nan nan nan
nan nan nan nan nan nan nan nan nan nan nan nan nan nan 255 220 nan nan nan nan nan 285 291 298 295 291 289 290 288 287 291 290 289 291 296 297 296 293 nan nan nan nan nan nan
nan nan nan nan nan nan nan nan nan nan nan nan nan 225 nan 230 332 288 nan nan nan 283 298 296 299 300 305 300 298 291 286 287 290 295 297 295 297 nan nan nan nan nan nan nan
nan nan nan nan nan nan nan nan nan nan nan 331 310 nan 195 280 nan nan nan nan nan nan 299 298 294 293 303 307 304 294 287 290 292 292 294 296 nan nan nan nan nan nan nan nan
nan nan nan nan nan nan nan nan nan 241 245 234 228 nan 211 228 222 nan nan nan nan 226 219 289 294 297 297 297 295 296 291 290 291 293 293 296 nan nan nan nan nan nan nan nan
nan nan nan nan nan nan nan 214 204 292 259 301 312 339 299 254 nan nan 229 266 276 271 224 274 289 294 299 295 296 296 293 294 295 296 299 nan nan nan nan nan nan nan nan nan
nan nan nan nan nan nan nan nan nan nan nan 228 237 nan 209 229 246 254 265 279 272 238 234 294 289 292 297 292 293 287 290 292 298 301 299 nan nan nan nan nan nan nan nan nan
nan nan nan nan nan nan nan nan nan nan nan nan nan nan nan 268 270 269 278 246 248 245 243 223 297 295 296 292 286 290 293 295 301 306 307 nan nan nan nan nan nan nan nan nan
nan nan nan nan nan nan nan nan nan nan nan nan nan nan nan 250 252 244 255 258 254 238 235 234 290 308 295 289 287 287 287 290 295 299 308 311 nan nan nan nan nan nan nan nan
nan nan nan nan nan nan nan nan nan nan nan nan nan nan nan 245 250 244 257 269 262 249 237 232 252 291 295 291 287 283 285 288 294 298 304 nan nan nan nan nan nan nan nan nan
nan nan nan nan nan nan nan nan nan nan nan nan nan nan 234 243 244 259 252 253 256 250 246 243 244 289 288 288 283 283 282 286 291 295 300 nan nan nan nan nan nan nan nan nan
nan nan nan nan nan nan nan nan nan nan nan 240 244 249 246 245 242 247 242 250 257 251 250 254 247 274 284 284 286 288 289 290 290 294 294 nan nan nan nan nan nan nan nan nan
nan nan nan nan nan nan nan nan nan nan 253 nan nan nan nan nan nan nan nan nan 240 246 241 247 255 277 285 285 288 294 299 302 305 294 nan nan nan nan nan nan nan nan nan nan
nan nan nan nan nan nan nan nan nan 245 248 nan nan nan nan nan nan nan nan nan nan 235 246 260 264 271 278 281 284 286 292 294 290 291 nan nan nan nan nan nan nan nan nan nan
nan nan nan nan nan nan nan 238 241 251 nan nan nan nan nan nan nan nan nan nan nan 223 247 265 265 271 271 275 278 283 283 287 293 300 303 nan nan nan nan nan nan nan nan nan
nan nan nan nan nan nan nan nan nan nan nan nan nan nan nan nan nan nan nan nan nan nan 252 257 265 270 271 270 273 280 285 291 295 301 nan nan nan nan nan nan nan nan nan nan
nan nan nan nan nan nan nan nan nan nan nan nan nan nan nan nan nan nan nan nan nan nan 251 253 261 263 265 273 276 285 292 296 299 nan nan nan nan nan nan nan nan nan nan nan
nan nan nan nan nan nan nan nan nan nan nan nan nan nan nan nan nan nan nan nan nan nan 256 257 262 264 270 275 282 287 290 298 nan nan nan nan nan nan nan nan nan nan nan nan